Temperature
22 22 22 21 21 21 21 21 20 20 20 20 19 19 18 18 17 17 16 15 15 15 14 14 13 13 13 13 13 12 12 12 12 11 11 11 11 10 10 10 10 10 10 10
21 22 22 21 21 21 21 20 20 20 19 20 19 18 18 17 16 16 15 15 14 14 14 13 13 13 13 12 12 12 12 12 11 11 11 10 10 10 10 10 9 9 9 9
20 21 21 20 20 20 20 20 20 19 18 18 18 17 17 16 16 15 14 14 14 13 13 13 13 12 12 12 12 11 11 11 11 11 10 10 10 10 9 9 9 9 9 9
19 20 18 19 20 20 19 19 19 18 18 17 17 16 16 15 15 15 14 13 13 13 13 12 12 12 12 11 11 11 11 11 11 10 10 10 9 9 9 9 9 8 8 8
19 18 18 19 19 19 18 17 18 17 17 17 16 16 15 15 14 14 14 13 13 12 12 12 12 11 11 11 11 10 10 10 10 10 10 9 9 9 9 8 8 8 8 8
18 18 17 18 18 19 18 16 17 17 16 16 15 15 14 14 14 13 13 12 12 12 12 11 11 11 10 10 10 10 10 10 10 9 9 9 9 8 8 8 8 7 7 7
17 17 17 17 17 18 16 16 16 16 15 15 14 14 14 14 13 13 12 12 12 11 11 11 11 10 10 10 10 10 10 9 9 9 8 8 8 8 8 8 7 7 7 7
17 16 16 17 17 16 16 16 15 15 14 14 14 13 13 13 12 12 12 11 11 11 10 10 10 10 10 10 10 9 9 9 9 8 8 8 8 8 7 7 7 7 6 6
16 16 16 16 16 15 15 15 14 14 13 13 13 13 12 12 11 11 11 11 10 10 10 10 10 9 9 9 9 9 9 9 8 8 8 7 7 7 7 7 6 6 6 6
16 16 16 15 15 14 14 14 13 13 13 13 12 12 12 11 11 10 10 10 10 10 9 9 9 9 9 9 9 9 8 8 8 7 7 7 7 7 7 6 6 6 6 6
16 15 15 15 14 14 13 13 13 12 12 12 11 11 11 10 10 10 9 9 9 9 9 9 9 8 8 9 9 8 8 8 7 7 7 7 7 7 6 6 6 6 6 6
15 15 15 14 14 13 13 12 12 12 11 11 11 11 10 10 9 9 9 9 9 8 8 8 8 8 8 8 8 8 7 7 7 7 7 7 7 6 6 6 6 6 6 6
14 14 14 13 13 12 12 12 11 11 11 10 10 10 10 10 9 9 9 8 8 8 8 8 8 8 8 8 7 7 7 7 7 6 6 6 6 6 6 6 5 5 5 5
13 13 13 12 12 12 11 11 11 10 10 10 10 10 9 9 9 9 8 8 8 8 8 8 7 7 7 7 7 7 7 6 6 6 6 6 6 6 5 5 5 5 5 5
12 12 12 12 11 11 11 10 10 10 10 10 9 9 9 9 8 8 8 8 8 8 7 7 7 7 7 7 7 6 6 6 6 6 5 5 5 5 5 5 5 5 4 4
12 11 11 11 11 10 10 10 10 9 9 9 9 8 8 8 8 8 8 8 7 7 7 7 7 7 7 6 6 6 6 6 6 5 5 5 5 5 5 5 4 4 4 4
11 11 11 10 10 10 9 9 9 9 9 8 8 8 8 8 7 7 7 7 7 7 7 6 6 6 6 6 6 5 5 5 5 5 5 5 5 4 4 4 4 4 4 4
10 10 10 10 9 9 9 9 8 8 8 8 8 7 7 7 7 7 7 6 6 6 6 6 6 6 6 5 5 5 5 5 5 5 5 4 4 4 4 4 4 3 3 3
9 9 9 9 9 9 8 8 8 8 7 7 7 7 7 6 6 6 6 6 6 6 6 5 5 5 5 5 5 5 5 5 4 4 4 4 4 4 4 4 3 3 3 3
8 8 8 8 8 8 7 7 7 7 7 7 6 6 6 6 6 5 5 5 5 5 5 5 5 5 5 4 4 4 4 4 4 4 4 4 4 3 3 3 3 3 3 3
8 8 7 7 7 7 7 6 6 6 6 6 6 5 5 5 5 5 5 5 5 5 5 4 4 4 4 4 4 4 4 3 3 3 3 3 3 3 3 3 3 3 2 2
7 7 7 7 7 6 6 6 6 6 5 5 5 5 5 5 5 4 4 4 4 4 4 4 4 4 4 4 4 3 3 3 3 3 3 3 3 3 3 2 2 2 2 2
6 6 6 6 6 6 6 5 5 5 5 5 5 4 4 4 4 4 4 4 4 4 4 3 3 3 3 3 3 3 3 3 3 3 2 2 2 2 2 2 2 2 2 2
6 6 6 6 5 5 5 5 5 5 5 4 4 4 4 4 3 3 3 3 3 3 3 3 3 3 3 3 3 3 3 2 2 2 2 2 2 2 2 2 2 2 2 2
6 6 5 5 5 5 5 5 4 4 4 4 4 4 3 3 3 3 3 3 3 3 3 3 3 3 3 2 2 2 2 2 2 2 2 2 2 2 2 2 1 1 1 1
5 5 5 5 5 5 4 4 4 4 4 3 3 3 3 3 3 3 2 2 2 2 2 2 2 2 2 2 2 2 2 2 2 2 2 2 2 2 2 1 1 1 1 1
5 5 5 4 4 4 4 4 4 3 3 3 3 3 2 2 2 2 2 2 2 2 2 2 2 2 2 2 2 2 2 2 2 1 1 1 1 1 1 1 1 1 1 1
Wind_Speed
11 8 7 7 8 8 8 7 7 6 3 1 2 2 2 2 2 3 4 3 3 3 2 2 2 3 3 3 3 4 4 3 2 2 1 1 1 0 1 1 2 1 1 1
11 9 7 8 7 8 8 8 8 7 5 3 3 3 2 2 3 2 2 2 1 2 2 2 2 2 2 2 3 3 3 3 2 3 2 1 1 1 1 1 1 2 2 1
9 7 8 7 5 6 4 4 5 6 3 2 2 2 2 1 2 1 2 1 1 1 0 1 1 1 2 2 2 2 3 2 2 2 2 1 1 1 1 0 1 1 1 1
8 8 8 1 2 1 1 2 4 3 3 3 2 2 2 3 2 3 2 1 1 0 0 0 0 0 1 2 2 2 3 2 2 2 1 1 1 1 1 1 1 0 0 0
6 7 5 1 1 1 3 2 2 2 2 3 4 2 2 3 3 2 2 2 1 1 0 1 1 1 1 2 2 2 2 2 2 2 2 1 1 2 1 1 1 1 1 1
6 7 5 1 3 3 2 1 3 3 3 3 3 2 2 4 3 3 3 2 2 1 1 1 1 1 1 2 2 2 2 2 2 1 2 2 2 2 1 1 1 1 1 1
7 6 2 2 2 1 1 2 3 3 3 3 2 2 2 3 3 3 3 2 2 2 1 1 1 1 1 1 2 1 1 2 2 2 2 2 2 1 1 1 1 1 1 1
5 6 3 2 1 1 2 4 4 4 5 4 5 5 4 3 3 2 2 2 3 2 1 1 1 1 1 1 1 2 2 2 2 2 2 2 2 1 1 1 1 1 1 1
2 0 3 4 3 4 5 4 4 4 4 3 4 4 3 3 3 3 3 2 2 2 1 2 2 1 1 1 2 2 2 2 2 2 2 2 2 2 2 1 1 2 1 1
3 2 2 2 2 3 3 3 4 3 3 3 3 3 3 3 2 2 3 2 2 2 2 1 2 2 2 2 2 2 2 2 2 1 1 1 1 1 1 1 1 1 1 1
5 3 1 1 1 1 1 2 2 3 3 2 3 2 2 1 1 1 1 1 2 1 1 1 1 1 2 2 2 2 2 1 1 1 1 1 1 1 1 1 2 2 2 2
3 2 3 2 1 2 2 1 2 3 3 3 2 0 0 0 0 0 0 1 1 1 1 1 1 1 1 1 1 2 1 1 1 1 1 1 2 2 3 2 2 1 1 1
3 3 3 1 1 2 2 2 2 2 2 3 1 0 0 1 1 0 0 0 0 0 1 1 1 1 1 0 1 1 1 1 1 1 1 1 1 1 1 3 2 1 1 1
2 2 2 2 2 2 2 3 2 2 2 2 1 0 0 0 1 1 1 1 0 0 1 1 1 1 1 1 0 0 1 1 1 1 1 0 1 1 1 1 0 1 1 2
4 3 3 2 1 1 2 2 2 2 2 1 1 0 0 1 1 1 1 0 0 0 1 1 0 0 1 1 1 1 1 1 1 1 0 1 1 1 1 1 1 0 1 2
4 3 2 2 2 2 2 3 3 2 2 1 0 1 1 1 0 0 0 0 1 1 0 1 1 1 1 0 0 1 1 0 1 1 0 1 1 1 1 1 1 1 0 0
4 3 3 3 3 2 2 3 3 2 1 1 1 1 0 0 0 0 0 0 0 0 0 1 1 1 1 1 1 0 1 1 1 1 1 1 1 1 1 1 1 1 1 1
2 2 3 3 2 2 2 2 2 1 1 1 1 1 0 0 0 0 0 1 1 1 2 1 1 1 0 0 1 1 0 1 1 1 1 1 1 1 1 1 1 1 1 1
1 2 2 1 1 1 2 1 1 1 1 0 0 1 1 1 0 0 0 0 0 0 1 1 2 1 0 1 1 1 1 1 1 1 1 0 1 1 1 1 1 1 1 1
1 1 1 0 0 0 0 0 1 1 1 0 0 1 1 1 0 0 0 0 0 1 1 2 1 1 1 1 1 1 1 1 1 1 1 1 1 1 1 1 1 1 1 1
1 1 1 0 0 0 0 0 1 1 1 1 1 1 1 1 1 0 0 1 1 2 2 1 1 1 1 1 1 1 1 1 1 1 1 1 1 1 1 1 1 1 1 1
1 1 1 1 1 1 1 1 0 0 1 1 1 1 1 1 1 1 0 0 1 2 1 1 1 1 2 2 1 1 1 1 1 1 1 1 1 1 2 2 1 1 1 1
1 2 2 2 2 1 1 1 1 1 1 1 1 1 1 1 1 1 1 1 1 1 1 0 1 2 3 2 2 2 2 2 1 1 1 2 2 2 2 2 2 2 2 2
2 2 2 2 2 2 2 2 2 1 1 1 1 1 1 1 1 1 1 0 1 1 1 1 2 3 3 2 2 2 2 2 2 2 2 2 2 2 2 2 2 2 2 2
2 2 2 2 2 2 2 2 2 1 1 1 1 1 1 1 1 1 0 1 1 1 1 2 3 3 2 2 2 2 2 2 2 2 2 2 2 2 2 2 2 2 2 2
2 2 1 2 2 2 1 2 2 1 1 1 1 1 1 0 0 1 1 1 1 2 1 1 1 2 2 2 2 2 2 2 3 3 3 2 3 3 2 2 3 2 2 2
2 2 1 1 1 1 1 1 2 2 2 1 1 1 1 1 1 1 1 1 1 1 1 1 1 1 2 2 2 2 2 2 2 2 2 3 3 2 3 3 2 2 2 3
Wind_Direction
273 277 265 256 257 258 260 268 274 289 289 302 107 106 76 58 90 104 118 114 120 124 136 135 146 150 153 161 162 162 157 147 145 137 125 115 104 47 56 36 42 65 43 29
274 267 266 262 253 246 252 264 272 285 295 11 36 45 42 51 71 81 100 106 117 136 148 167 163 163 173 163 163 157 149 146 153 148 149 198 148 100 61 55 37 53 41 25
273 266 260 254 265 253 252 270 270 273 298 31 8 9 23 28 60 98 95 65 98 116 141 170 172 178 182 166 148 146 139 139 146 149 158 189 162 128 121 116 62 57 38 20
274 272 259 235 42 62 278 328 345 6 27 9 355 11 42 31 47 57 75 77 66 102 145 136 135 91 141 145 134 152 157 157 154 154 172 184 157 166 166 166 116 115 160 316
267 269 260 217 73 306 267 269 354 6 15 2 349 337 32 36 60 62 72 72 78 45 35 116 114 118 135 156 154 163 157 163 168 172 175 166 175 185 182 179 206 225 199 179
261 265 267 35 38 13 322 255 24 19 8 358 352 309 342 18 38 51 58 71 61 46 42 74 114 134 170 184 170 167 155 147 149 164 174 177 189 190 192 181 199 212 217 208
258 263 262 46 27 19 264 356 26 21 23 16 347 332 338 13 30 42 53 64 61 52 50 33 111 146 181 176 170 151 129 134 144 167 184 170 166 167 174 181 195 208 215 202
253 254 253 59 53 62 30 35 38 30 27 9 359 0 6 28 32 52 57 64 76 67 43 42 83 116 129 132 134 112 112 134 149 156 173 161 161 175 180 192 210 228 215 223
265 236 61 61 56 39 33 31 25 20 12 360 355 353 18 29 30 37 51 62 76 87 62 49 51 78 103 104 112 119 125 123 146 154 144 150 169 180 185 200 212 226 214 219
268 193 144 98 67 38 21 15 5 358 359 356 353 351 20 31 29 32 38 48 75 96 96 74 47 48 75 106 110 119 139 139 127 125 125 131 137 154 169 199 216 216 222 232
267 267 280 121 37 3 345 351 350 346 351 348 348 1 20 6 26 36 32 57 81 115 130 113 84 57 56 86 124 131 130 128 114 99 112 114 106 92 162 192 193 203 226 223
276 308 300 286 349 336 328 356 345 332 335 341 336 285 106 208 117 66 47 89 103 126 124 129 117 104 78 50 121 140 133 124 106 98 93 99 106 61 33 70 112 152 187 188
303 334 343 351 324 302 303 320 318 313 312 312 301 204 167 149 161 149 259 230 171 130 143 124 120 121 120 95 19 63 86 97 102 101 96 107 130 133 55 23 44 54 52 52
351 343 314 304 298 321 330 321 321 315 313 315 340 45 108 149 184 188 226 240 234 148 141 126 127 155 149 154 155 95 99 88 84 99 125 178 186 176 171 160 45 1 7 49
303 302 292 315 338 318 311 308 304 304 309 322 40 320 274 250 224 221 238 220 187 204 139 129 109 52 83 165 179 171 128 135 147 164 208 211 213 191 168 159 158 131 44 33
278 274 264 252 252 255 281 286 285 292 309 316 336 292 293 298 289 85 36 173 196 200 148 120 74 19 18 47 170 156 176 165 117 160 214 226 214 205 175 164 165 155 139 48
263 257 254 250 246 238 270 285 290 302 320 302 332 350 335 284 300 80 35 329 177 230 134 89 60 24 3 16 325 228 175 191 209 217 229 229 223 208 190 182 180 186 206 187
264 268 277 272 249 240 256 272 288 315 329 325 8 351 12 228 248 290 340 33 62 40 33 41 25 334 329 73 322 309 271 218 226 234 240 240 225 211 213 211 204 205 221 180
269 275 274 277 270 259 262 280 309 320 328 158 190 272 305 289 285 295 313 97 116 2 345 355 338 338 22 26 350 315 305 295 293 269 231 222 256 254 236 234 230 209 198 189
262 287 311 340 21 271 304 327 322 320 339 9 219 274 289 290 299 296 304 282 143 94 39 13 347 10 39 11 338 301 286 272 271 267 250 232 247 256 249 245 238 227 221 213
248 239 269 273 253 336 294 282 292 317 345 339 299 284 287 298 300 266 240 261 60 62 47 359 358 30 11 348 316 290 275 265 264 264 255 245 253 259 257 253 253 255 250 241
234 232 249 263 232 227 240 279 331 316 295 277 282 289 294 288 290 275 258 203 101 82 36 312 48 11 343 333 292 282 274 271 267 263 251 239 243 250 253 251 238 245 253 249
239 240 242 246 246 232 221 242 263 251 266 281 280 270 278 283 268 264 280 66 94 28 322 302 312 312 315 302 269 263 263 262 257 254 255 251 242 242 248 250 245 244 249 253
240 238 245 250 249 238 226 241 251 232 227 263 272 275 272 274 293 316 20 52 313 311 302 256 260 281 285 263 258 252 250 254 253 251 252 256 255 250 248 245 243 248 248 251
248 243 238 241 241 239 228 224 227 215 202 224 266 284 285 251 255 292 276 232 236 264 261 240 257 274 271 262 256 251 244 245 250 252 245 250 257 260 260 252 241 243 244 246
254 254 248 248 248 242 228 206 202 191 199 234 266 286 305 312 256 256 261 251 232 254 262 256 256 269 270 275 269 262 246 245 252 255 254 253 255 255 256 256 258 248 245 242
252 253 241 233 238 230 217 201 203 209 210 221 247 268 283 286 275 267 268 268 253 233 250 268 264 247 252 262 268 268 260 247 238 232 242 249 254 257 256 257 256 256 259 255
Height
1465 1462 1463 1466 1468 1468 1471 1473 1478 1476 1476 1474 1474 1477 1479 1480 1482 1483 1485 1486 1488 1489 1491 1492 1494 1495 1496 1498 1499 1500 1501 1502 1503 1503 1504 1504 1505 1505 1505 1505 1506 1506 1506 1507
1466 1461 1462 1465 1464 1466 1468 1470 1472 1473 1475 1473 1474 1477 1479 1480 1482 1483 1484 1485 1487 1488 1489 1490 1491 1493 1494 1495 1496 1497 1498 1499 1500 1501 1501 1502 1502 1502 1502 1503 1503 1503 1503 1504
1470 1462 1463 1470 1465 1465 1467 1468 1470 1475 1476 1474 1475 1477 1478 1480 1481 1482 1483 1484 1485 1486 1487 1488 1489 1490 1491 1492 1493 1494 1495 1496 1497 1497 1498 1498 1499 1499 1499 1500 1500 1500 1501 1501
1470 1468 1478 1470 1461 1462 1467 1470 1470 1471 1474 1474 1476 1477 1478 1479 1479 1480 1481 1482 1483 1484 1485 1486 1487 1487 1488 1489 1490 1491 1492 1493 1493 1494 1494 1495 1495 1496 1496 1497 1497 1498 1498 1499
1472 1473 1471 1467 1464 1465 1468 1472 1471 1472 1474 1475 1476 1476 1477 1478 1478 1479 1480 1481 1482 1482 1483 1483 1484 1485 1485 1486 1488 1488 1489 1490 1490 1491 1491 1491 1492 1493 1493 1494 1494 1495 1495 1496
1471 1476 1476 1471 1466 1465 1468 1474 1472 1472 1474 1475 1475 1477 1478 1478 1477 1478 1478 1479 1480 1480 1481 1481 1482 1482 1483 1484 1485 1485 1486 1487 1488 1488 1488 1489 1489 1490 1490 1491 1491 1492 1492 1493
1471 1473 1471 1469 1467 1467 1477 1478 1473 1473 1474 1475 1476 1478 1478 1477 1477 1477 1477 1478 1478 1478 1479 1479 1480 1480 1480 1481 1482 1483 1484 1484 1484 1485 1485 1486 1486 1487 1487 1488 1488 1489 1489 1490
1470 1474 1477 1469 1468 1472 1476 1474 1474 1474 1475 1476 1476 1476 1476 1476 1476 1476 1476 1476 1476 1477 1477 1478 1478 1478 1478 1479 1480 1480 1481 1481 1482 1481 1483 1483 1484 1484 1485 1485 1485 1485 1486 1486
1470 1473 1471 1470 1471 1472 1473 1474 1475 1475 1475 1476 1476 1476 1475 1475 1475 1475 1475 1475 1476 1476 1476 1476 1476 1476 1476 1477 1477 1478 1478 1479 1479 1480 1480 1480 1481 1481 1482 1482 1482 1483 1483 1483
1467 1467 1468 1470 1471 1472 1473 1474 1474 1475 1475 1475 1475 1474 1474 1474 1474 1474 1474 1474 1475 1475 1475 1475 1475 1475 1475 1475 1476 1476 1476 1477 1478 1478 1478 1478 1479 1479 1479 1479 1480 1480 1480 1480
1466 1467 1468 1469 1470 1471 1472 1473 1473 1474 1474 1474 1474 1473 1473 1473 1474 1473 1473 1474 1474 1474 1474 1474 1474 1474 1474 1474 1475 1475 1475 1475 1476 1476 1476 1477 1477 1477 1477 1477 1477 1477 1477 1478
1467 1467 1467 1468 1469 1470 1471 1471 1472 1472 1472 1472 1472 1472 1472 1472 1472 1472 1472 1472 1472 1473 1473 1473 1473 1473 1473 1473 1474 1474 1474 1474 1474 1474 1475 1475 1475 1475 1475 1476 1476 1476 1476 1476
1466 1466 1467 1467 1468 1469 1469 1470 1470 1471 1471 1470 1470 1471 1471 1471 1471 1471 1471 1471 1471 1472 1472 1472 1472 1472 1472 1472 1473 1473 1473 1473 1473 1473 1473 1473 1473 1473 1473 1474 1474 1473 1473 1473
1465 1465 1466 1466 1467 1468 1468 1468 1468 1468 1468 1468 1469 1469 1469 1469 1469 1469 1469 1470 1470 1470 1470 1470 1471 1471 1471 1471 1471 1472 1472 1472 1472 1471 1471 1472 1472 1472 1472 1472 1472 1471 1472 1471
1463 1464 1465 1465 1466 1466 1467 1467 1467 1466 1467 1467 1467 1467 1467 1467 1467 1468 1468 1468 1469 1469 1469 1469 1469 1469 1470 1470 1470 1470 1470 1470 1470 1470 1470 1470 1470 1471 1471 1470 1470 1470 1469 1469
1462 1462 1463 1463 1464 1464 1465 1465 1465 1465 1465 1465 1465 1465 1465 1466 1466 1466 1466 1466 1467 1467 1467 1467 1467 1467 1468 1468 1468 1468 1468 1469 1469 1469 1468 1468 1469 1469 1469 1469 1468 1468 1468 1467
1460 1460 1460 1461 1461 1462 1463 1463 1463 1463 1463 1463 1463 1464 1464 1464 1464 1464 1464 1465 1465 1465 1465 1465 1465 1465 1466 1466 1466 1466 1466 1466 1467 1467 1467 1467 1467 1467 1467 1467 1466 1466 1466 1466
1458 1458 1459 1459 1459 1460 1460 1461 1461 1461 1461 1461 1461 1462 1462 1462 1462 1462 1462 1463 1463 1463 1463 1463 1463 1463 1463 1463 1463 1464 1464 1464 1464 1465 1465 1465 1465 1465 1465 1465 1465 1464 1464 1464
1455 1456 1456 1457 1457 1458 1458 1458 1459 1459 1459 1459 1459 1460 1460 1460 1460 1460 1460 1460 1460 1460 1460 1460 1460 1460 1461 1461 1461 1461 1461 1462 1462 1463 1463 1463 1463 1463 1463 1463 1463 1463 1462 1462
1453 1454 1454 1454 1455 1456 1456 1456 1457 1457 1457 1457 1458 1458 1458 1458 1458 1458 1458 1458 1458 1458 1458 1458 1458 1458 1459 1459 1459 1459 1459 1459 1460 1460 1460 1460 1461 1461 1461 1461 1460 1460 1460 1459
1452 1452 1453 1453 1453 1454 1454 1455 1455 1455 1455 1455 1456 1456 1456 1456 1456 1456 1456 1456 1456 1456 1456 1456 1457 1457 1456 1456 1456 1456 1456 1457 1457 1457 1457 1458 1458 1458 1458 1458 1458 1458 1457 1456
1450 1451 1451 1452 1452 1452 1453 1453 1453 1453 1453 1453 1454 1454 1454 1454 1454 1454 1454 1454 1454 1454 1454 1454 1454 1454 1454 1454 1453 1453 1454 1454 1454 1454 1455 1455 1455 1455 1455 1455 1455 1454 1454 1453
1449 1449 1450 1450 1450 1450 1451 1451 1451 1451 1451 1451 1452 1452 1451 1451 1451 1452 1452 1452 1452 1451 1451 1451 1451 1451 1451 1450 1450 1451 1451 1451 1451 1451 1451 1451 1452 1452 1452 1452 1451 1451 1450 1450
1447 1448 1448 1448 1448 1448 1448 1449 1449 1450 1450 1450 1450 1450 1450 1449 1449 1449 1449 1449 1449 1449 1449 1448 1448 1448 1448 1447 1447 1447 1447 1448 1448 1448 1448 1448 1448 1448 1448 1448 1448 1447 1447 1446
1446 1446 1446 1446 1446 1446 1447 1447 1447 1447 1447 1448 1448 1448 1448 1447 1447 1446 1446 1446 1446 1446 1446 1446 1445 1445 1444 1444 1444 1444 1444 1444 1444 1444 1444 1444 1444 1445 1444 1444 1444 1443 1443 1442
1444 1444 1444 1444 1444 1444 1444 1445 1445 1445 1445 1445 1445 1445 1445 1445 1444 1444 1444 1444 1444 1443 1443 1443 1442 1442 1441 1441 1441 1441 1440 1440 1440 1440 1440 1440 1441 1441 1440 1440 1440 1439 1439 1438
1441 1441 1441 1441 1442 1442 1442 1442 1442 1443 1443 1443 1443 1443 1442 1442 1441 1441 1441 1441 1441 1440 1440 1440 1439 1439 1438 1438 1438 1437 1437 1437 1437 1437 1437 1437 1437 1437 1436 1436 1435 1435 1435 1434